Dewpoint
75 74 74 73 71 71 71 68 51 49 50 47 48 49 48 53 53 52 52 54 54 58 57 57 57 56 57 55 60 61 61 60 61 54 55 65 70 71 72 72 73 72 72 73 74 75 75 75 74 75 74 74 74 74 73 73 74 73 74 74 75 75 74 75 75 75 75 74 75 75 76 76 76 77 77 77 77 77 77 77 77 76 76 76 76 76 76 76 76 76 76 76 75 75 75 75 75
74 74 73 71 70 71 64 65 49 49 49 47 48 49 51 53 53 51 52 53 56 58 60 60 60 61 61 61 61 60 60 63 64 63 67 69 70 71 72 72 72 72 72 73 74 74 74 75 75 75 75 74 75 74 74 74 73 74 74 75 75 75 75 75 74 74 75 74 75 75 75 76 76 77 77 77 77 77 77 77 77 77 76 76 76 76 76 76 76 76 75 75 75 75 75 75 75
73 71 70 71 71 69 66 62 45 48 45 44 48 50 52 52 52 53 54 57 59 60 60 59 59 60 59 58 56 59 57 64 64 65 67 70 68 70 71 72 73 73 73 74 74 74 74 74 75 75 75 75 75 74 75 75 74 73 75 75 76 75 75 75 74 74 75 75 76 76 76 76 76 76 76 76 77 76 77 77 77 76 76 76 76 76 76 75 75 75 75 75 75 75 75 75 75
72 71 69 71 67 68 61 55 49 47 44 46 48 50 52 53 55 57 59 59 59 59 58 58 57 61 58 58 60 61 61 62 65 66 66 68 68 71 71 72 73 73 73 74 73 74 74 74 75 76 76 76 75 75 74 74 75 75 76 75 75 76 76 76 76 75 75 75 76 76 76 76 76 76 76 76 76 76 76 76 76 76 76 76 76 75 74 74 74 74 74 74 74 74 74 74 74
70 71 72 68 65 61 59 50 46 49 41 48 43 50 54 55 57 58 59 59 58 58 58 59 59 63 63 61 61 58 60 65 65 66 66 69 71 72 72 73 73 73 73 74 74 73 73 74 75 76 76 75 76 75 75 76 76 76 76 76 76 76 76 76 76 76 76 76 76 76 76 76 76 76 76 76 76 76 76 76 76 76 76 76 75 74 74 74 74 74 74 74 74 74 74 74 73
70 70 71 67 63 63 60 44 45 43 47 49 46 51 55 57 57 58 58 58 59 59 59 59 57 59 61 63 63 60 63 61 66 66 67 69 71 72 72 73 72 72 73 74 74 74 74 74 75 76 76 76 76 75 76 76 75 75 75 75 75 75 75 75 75 76 76 76 76 76 76 76 76 76 76 76 76 76 76 76 76 76 76 75 75 74 74 74 74 74 74 74 74 74 73 73 73
67 66 64 65 64 60 50 42 42 44 45 49 50 54 56 57 57 57 57 57 58 59 60 59 60 60 59 62 63 65 66 66 65 67 68 70 71 72 72 72 72 72 73 73 74 74 73 75 75 76 76 76 76 76 76 76 76 76 76 76 75 75 75 75 76 75 76 76 76 76 76 76 76 76 76 76 76 76 76 76 76 75 75 74 74 74 74 74 74 73 73 73 73 73 73 73 72
67 62 63 59 52 51 41 42 43 44 47 51 52 55 56 57 57 56 56 55 56 56 59 59 59 59 60 63 59 66 68 68 68 69 70 71 71 72 72 72 71 72 72 73 74 74 75 75 76 76 76 76 76 76 76 76 76 76 76 76 76 75 75 76 76 76 75 76 76 76 76 76 76 76 76 76 76 76 76 76 75 75 75 74 74 74 74 74 74 73 73 73 73 74 73 74 73
63 61 60 59 45 39 41 41 45 48 50 51 53 56 59 57 57 56 55 57 57 58 58 58 59 54 59 61 61 65 67 69 69 71 70 71 71 71 71 71 71 71 71 72 73 75 75 76 76 76 76 76 76 76 76 76 76 76 76 76 76 75 75 75 76 75 76 76 75 75 76 76 76 75 75 75 75 75 75 75 75 75 74 74 74 73 73 74 74 74 73 72 73 73 74 73 73
61 60 55 54 47 40 40 42 46 47 50 52 54 55 56 56 56 56 56 56 56 57 59 60 58 57 60 59 62 64 66 69 69 69 70 70 71 71 71 71 71 71 71 71 73 74 75 76 76 77 76 76 76 76 76 77 77 76 76 76 75 75 76 75 75 75 75 75 75 75 75 75 75 75 75 75 75 75 75 74 74 74 73 73 73 73 73 74 73 73 73 72 72 72 73 73 73
59 60 53 47 39 40 39 41 47 50 51 53 54 56 56 56 56 55 56 57 58 58 60 59 59 59 60 61 62 68 68 68 68 68 70 71 71 71 71 72 71 71 71 72 73 74 75 75 76 76 76 77 77 77 76 76 76 76 76 75 75 75 75 75 75 75 75 75 75 75 75 75 75 75 75 74 74 74 74 74 73 73 73 73 73 73 73 74 73 72 73 72 72 72 73 73 73
55 55 55 43 39 39 39 44 48 50 52 52 53 55 56 56 56 56 57 56 58 58 57 58 58 60 59 59 62 67 67 67 67 69 70 71 70 70 72 72 71 71 71 72 73 74 75 76 75 76 76 76 76 76 76 76 76 76 76 76 76 76 76 75 75 75 75 75 75 75 75 74 74 74 74 74 73 73 73 73 73 72 72 72 72 73 73 73 73 72 72 72 72 73 73 73 74
56 53 50 41 39 39 41 46 49 50 50 51 52 55 56 56 54 56 56 58 58 57 56 60 61 59 57 59 64 66 66 67 68 69 70 70 71 71 72 71 71 72 72 73 73 74 75 76 76 76 76 75 76 76 76 76 76 76 76 76 76 76 75 75 75 75 75 75 75 75 75 75 74 74 74 73 73 73 73 73 72 72 72 72 73 73 73 73 72 73 73 74 73 74 74 74 74
56 51 45 43 44 40 43 46 50 49 48 51 53 56 56 55 57 57 57 55 56 56 60 60 59 61 60 62 64 63 65 68 68 69 70 71 71 71 71 71 72 72 73 74 74 74 75 76 75 76 76 76 76 75 76 76 76 76 76 76 76 76 76 75 75 75 75 75 75 75 75 74 74 74 74 73 73 75 75 75 75 74 74 74 75 74 74 74 75 75 75 74 75 75 75 74 74
54 50 44 44 40 41 44 45 48 47 44 51 54 56 56 58 58 58 55 54 59 61 61 62 61 55 56 59 60 62 65 68 68 69 70 71 71 71 71 71 72 73 73 73 74 74 74 75 74 76 76 76 76 76 76 76 76 76 76 76 76 76 76 75 75 75 75 75 74 74 74 74 74 74 75 75 75 74 74 74 74 74 74 73 74 74 74 75 74 74 74 74 74 75 75 75 74
56 47 42 41 38 38 43 44 49 48 46 52 55 56 57 59 58 56 56 60 61 61 59 56 62 57 58 60 61 63 67 68 69 69 70 71 71 71 71 72 72 72 74 74 73 74 74 75 75 75 76 76 76 76 77 76 76 76 76 76 76 75 75 75 75 75 75 75 74 74 75 75 75 75 75 74 74 73 74 75 75 74 73 73 73 74 74 74 74 74 75 75 75 75 75 75 75
53 47 42 40 38 38 41 43 48 44 48 52 56 56 55 57 58 61 62 62 59 58 59 58 59 62 58 60 63 66 67 69 70 69 70 70 70 69 70 72 71 72 73 74 74 74 74 75 75 75 76 76 76 76 76 76 76 76 76 75 75 75 75 75 74 75 75 75 74 75 75 75 76 75 76 75 74 75 75 75 75 74 73 73 73 73 74 74 74 75 75 75 75 75 75 75 77
51 47 45 42 38 37 40 42 47 48 48 53 56 55 56 57 58 60 60 59 57 58 60 61 62 61 60 63 66 67 68 68 68 68 68 69 69 68 68 69 70 70 71 72 74 74 74 75 75 75 75 76 76 76 76 76 76 76 76 76 76 76 75 75 76 76 75 76 74 75 76 75 75 76 76 74 75 75 74 74 74 74 74 74 73 73 74 74 75 75 75 75 75 75 76 73 74
47 45 44 40 40 38 41 42 47 46 48 54 55 56 56 56 58 60 56 57 57 58 60 61 62 62 64 65 66 67 67 67 67 67 67 67 67 67 67 69 69 69 71 71 72 74 74 74 75 75 75 76 76 76 76 76 77 77 77 76 76 76 76 76 77 76 76 76 76 76 76 75 75 76 76 75 74 73 73 74 75 75 75 74 75 76 76 76 76 74 74 74 76 75 73 73 73
46 45 43 42 41 40 41 43 45 46 52 54 55 56 55 57 58 60 56 56 56 56 58 59 60 61 63 65 66 66 66 66 67 67 66 68 67 67 67 68 68 69 70 70 71 73 73 73 74 75 76 77 76 75 76 75 76 76 76 76 75 76 76 77 76 76 76 76 75 76 74 75 76 76 75 75 75 75 74 76 76 76 77 76 76 75 75 74 74 74 74 75 73 73 72 72 72
45 44 43 42 42 39 40 42 44 47 53 54 55 56 55 57 58 57 56 55 55 55 58 57 60 62 63 65 65 65 66 66 67 67 66 67 68 67 67 68 68 69 70 71 72 73 74 74 74 75 76 76 76 76 75 74 76 75 75 75 75 74 75 75 75 76 76 76 76 75 74 75 75 74 75 75 73 75 74 75 75 76 77 76 75 75 74 73 73 72 72 73 73 73 72 73 73
42 43 44 43 41 40 41 41 43 48 53 54 55 54 53 58 57 56 56 53 50 53 58 59 61 63 63 64 65 65 65 65 66 67 66 67 67 68 68 69 69 69 71 70 71 72 73 74 74 74 75 76 76 75 75 74 76 75 75 74 75 75 75 74 75 75 75 76 75 73 74 74 75 75 75 75 75 75 74 74 75 75 75 75 76 74 73 73 72 72 72 72 72 73 73 73 73
39 40 39 42 42 41 41 40 44 51 53 54 54 54 56 56 55 56 55 55 52 57 58 60 63 63 64 65 65 65 65 65 66 66 67 66 68 68 67 68 69 69 70 70 71 72 73 74 74 74 74 75 75 75 75 75 75 74 75 75 74 74 75 74 74 74 75 76 75 75 73 73 73 73 74 75 74 75 74 74 75 76 76 75 75 74 74 73 72 71 72 73 73 73 73 73 74
39 37 32 32 40 41 41 40 46 51 53 53 54 55 54 55 53 56 54 54 57 58 59 61 64 64 64 64 65 65 65 65 65 66 66 67 67 67 68 68 68 70 70 70 70 71 72 72 74 75 74 74 75 75 75 74 75 74 74 75 75 74 74 74 74 74 76 75 77 76 75 74 73 73 74 74 74 75 75 76 76 75 75 75 75 75 73 73 72 73 73 74 74 74 72 73 72
35 34 34 32 32 35 41 41 47 51 52 54 54 53 54 54 53 56 54 54 59 59 61 63 64 64 64 64 64 65 66 66 66 66 67 67 68 68 68 69 69 69 69 70 70 71 71 73 73 73 74 74 74 74 74 74 74 75 74 74 74 75 74 73 74 75 75 75 76 76 76 74 74 74 74 74 75 75 76 76 75 75 75 75 76 75 75 74 73 73 73 73 74 73 73 73 72
29 29 28 29 33 37 40 43 47 51 53 54 53 52 54 54 56 54 54 57 60 62 62 63 64 64 64 64 65 66 67 66 66 67 67 68 68 68 68 69 69 69 69 70 70 71 72 73 73 72 73 74 74 73 74 74 74 74 74 75 74 75 74 74 75 74 74 74 75 76 75 75 74 74 74 76 75 76 76 77 76 75 75 75 75 75 74 74 73 73 73 73 73 73 73 73 73
29 28 36 35 39 39 42 44 48 51 52 53 52 53 54 55 53 50 56 58 61 62 62 63 64 63 64 64 65 67 66 66 67 67 67 68 69 69 69 68 68 69 70 71 70 71 72 72 72 73 73 75 74 73 74 74 74 74 74 74 75 75 74 75 75 74 74 74 75 77 77 76 76 75 75 76 75 75 76 76 76 76 75 76 75 75 75 74 73 72 73 72 73 73 72 71 72
24 42 42 42 41 41 43 46 49 50 52 53 53 53 54 54 53 50 55 59 61 61 62 63 63 64 64 65 66 68 68 68 67 67 67 68 68 68 69 69 69 69 70 70 71 72 71 72 72 73 73 74 75 73 74 74 74 74 75 74 74 75 76 74 74 74 75 75 77 77 77 77 76 76 77 76 76 76 76 75 76 75 75 74 75 74 74 74 73 72 73 73 73 73 72 71 72
34 43 40 42 42 42 44 45 48 49 51 53 54 53 52 54 51 53 57 60 61 61 62 62 63 64 64 65 65 67 67 68 67 67 67 67 68 68 69 69 69 69 69 70 71 72 71 72 72 73 73 74 74 73 73 74 74 74 74 74 75 75 75 75 74 74 76 76 77 77 77 77 77 76 76 76 75 75 74 75 74 75 74 74 75 75 74 73 73 73 73 74 72 72 71 71 71
44 44 42 41 41 42 45 47 48 49 51 53 50 42 47 52 53 56 59 59 60 61 62 62 63 63 64 65 65 66 67 67 67 67 67 68 68 69 69 69 69 69 69 70 71 71 71 72 72 73 73 73 74 73 74 73 74 74 74 75 76 76 74 74 74 75 76 75 76 77 77 78 77 76 76 75 75 76 75 74 73 73 73 74 74 75 75 74 73 73 72 72 71 71 70 70 70
40 43 42 40 38 40 46 46 48 48 53 52 48 41 41 49 53 57 59 59 60 60 61 61 62 63 63 64 64 65 66 67 67 67 68 68 69 69 69 70 70 70 70 70 71 72 73 73 73 73 74 73 74 74 74 74 74 74 74 75 75 76 75 75 74 74 75 75 76 76 77 77 76 75 76 76 75 74 75 74 74 74 73 73 74 74 74 73 72 72 71 70 71 69 69 69 69
43 38 38 41 36 42 46 49 47 47 52 52 47 43 40 47 53 57 59 59 59 59 60 60 61 62 62 64 64 64 65 66 67 67 67 68 68 68 69 70 70 71 72 72 72 72 72 74 75 73 74 74 74 74 74 75 75 75 75 75 76 77 75 75 75 74 74 75 76 76 76 76 75 75 76 76 75 74 73 74 75 74 73 73 73 74 73 72 72 71 71 71 69 68 69 68 69
42 38 40 39 39 41 45 48 49 49 51 52 47 42 45 45 52 57 59 59 59 59 59 60 60 61 62 63 63 64 64 65 66 66 67 68 68 68 69 70 71 71 72 73 72 73 73 73 75 74 73 74 74 75 75 75 75 75 75 76 75 76 75 75 75 75 75 75 75 75 76 75 76 75 76 75 76 76 75 74 74 73 73 73 73 73 72 71 71 69 71 71 70 69 67 68 68
40 37 40 41 38 43 42 47 48 49 50 49 49 46 45 51 56 57 58 58 58 58 59 60 60 61 62 62 63 63 64 65 65 66 67 68 68 69 69 71 70 71 72 72 73 73 73 73 74 74 74 74 75 75 75 74 75 75 75 76 76 75 75 74 75 75 76 75 76 75 76 75 76 75 75 75 76 75 74 73 74 74 73 73 73 72 72 72 71 70 70 71 70 70 68 68 68
39 38 40 40 39 42 42 43 46 49 50 48 48 47 46 49 56 57 58 58 58 58 59 59 60 60 62 62 63 63 64 64 65 66 67 68 68 69 69 69 70 71 71 72 72 73 73 73 74 75 75 75 75 76 76 75 75 75 74 74 74 75 75 75 75 76 75 76 75 76 76 75 75 75 74 75 74 73 73 73 74 73 74 74 72 72 71 71 71 71 70 70 71 70 69 69 69
35 38 37 39 37 41 42 44 47 48 49 47 47 47 46 49 56 57 58 58 58 58 59 59 60 60 62 62 62 62 63 64 65 66 66 67 68 68 68 69 69 70 71 72 73 73 74 74 74 75 76 75 76 76 75 74 73 73 72 74 74 74 75 75 76 74 76 75 75 76 76 76 75 75 75 75 75 74 74 73 73 73 73 72 72 71 71 71 71 71 71 70 70 69 69 69 69
36 38 38 39 37 40 43 43 46 48 49 47 47 47 47 48 55 57 58 58 59 58 59 59 60 60 61 61 61 62 63 63 64 66 66 67 67 68 69 69 69 70 71 72 72 73 73 73 73 74 75 76 75 74 74 73 72 73 74 73 72 73 74 75 75 75 74 74 75 76 76 75 75 75 74 75 74 74 74 73 73 72 72 72 72 72 72 72 71 71 70 71 69 68 68 69 69
35 37 37 38 39 37 42 42 44 48 47 47 49 48 48 50 55 57 58 58 58 58 59 59 60 60 61 62 62 62 63 64 64 65 65 66 66 67 68 68 69 69 70 71 71 72 73 73 73 74 74 75 74 75 75 75 75 74 73 72 72 71 73 73 74 75 74 75 76 76 76 75 75 75 75 75 75 74 74 72 72 73 72 73 73 72 72 72 71 71 70 69 70 68 67 67 68
32 32 35 36 37 33 36 42 42 46 46 46 47 47 47 49 53 57 58 58 59 58 59 59 60 61 61 61 62 63 63 64 64 64 65 65 65 66 67 68 68 69 70 70 71 72 73 73 73 74 74 74 74 75 75 75 75 75 74 73 72 71 73 74 73 74 76 76 76 76 75 75 75 75 75 75 75 74 73 73 73 73 73 72 72 71 72 71 71 70 70 68 67 68 67 68 68
28 31 34 34 33 36 34 35 40 44 44 44 47 45 46 49 53 55 58 58 59 60 59 59 60 61 61 61 62 62 63 63 63 63 63 64 65 66 66 67 68 69 69 70 71 72 72 73 73 74 74 74 75 75 75 75 76 76 75 75 74 73 73 75 76 76 76 76 75 76 75 76 76 75 74 75 75 74 73 73 73 73 73 72 72 71 71 71 71 70 69 69 68 66 67 66 68
24 25 28 30 29 33 34 33 40 44 46 45 45 44 44 49 49 52 56 58 58 59 59 60 60 60 61 62 62 62 62 63 63 63 63 63 64 65 66 67 67 68 69 70 70 71 72 72 73 74 74 74 75 75 75 75 75 75 75 75 75 75 74 74 75 74 75 75 74 75 76 76 76 75 75 75 74 73 74 73 73 72 72 72 72 71 71 70 70 70 69 68 67 67 65 66 66
22 24 24 24 27 28 34 40 40 39 41 44 41 40 40 47 47 48 53 56 57 58 59 59 60 60 60 60 61 62 62 63 64 64 63 63 64 65 66 67 67 67 68 69 70 70 72 72 73 74 74 74 74 75 75 75 74 74 74 73 72 72 72 72 72 73 72 73 72 73 76 74 75 75 75 75 74 74 74 73 73 72 72 73 73 71 71 71 71 71 70 69 68 67 67 66 65
19 20 24 23 26 29 36 38 35 38 37 41 42 37 34 47 48 50 53 55 56 58 58 57 59 60 59 60 60 60 60 61 62 63 63 63 64 65 66 67 66 66 68 69 70 71 72 72 73 74 74 74 74 75 75 75 74 74 74 73 73 72 72 73 74 73 73 74 75 75 76 74 75 75 74 74 74 74 74 74 73 72 72 72 72 72 71 70 70 70 70 69 68 69 68 66 65
17 24 24 25 28 32 36 37 33 38 44 44 42 38 36 37 41 50 53 53 55 56 57 57 57 59 58 59 58 60 60 60 61 62 63 63 64 65 65 66 66 66 67 69 69 70 72 73 73 73 74 74 74 75 75 75 74 74 74 74 73 73 72 73 74 74 75 75 75 75 75 74 74 74 74 74 74 74 73 73 72 71 70 70 71 70 69 70 71 71 70 69 69 69 67 66 65
18 26 25 25 27 30 35 35 32 39 36 41 42 42 39 39 44 51 52 52 54 54 55 56 57 57 58 58 58 59 60 60 60 61 62 63 64 64 66 67 67 67 67 68 69 70 71 72 73 74 74 74 74 75 75 75 75 75 74 74 74 73 74 74 74 73 73 74 74 75 75 74 74 74 74 73 73 72 72 71 72 70 69 69 71 69 69 71 71 70 70 69 69 68 68 67 66
20 25 25 26 28 34 35 33 34 39 37 37 43 40 38 37 45 46 52 51 51 53 54 55 57 57 57 57 58 58 59 61 60 60 62 63 64 64 65 66 67 67 67 69 69 70 71 72 73 73 73 73 74 75 75 75 75 75 74 74 74 74 74 74 73 72 73 73 73 74 74 73 72 73 74 73 73 72 70 71 70 69 69 68 69 68 69 70 70 70 71 71 71 69 69 68 67
23 22 23 26 31 37 39 41 41 40 35 35 41 41 37 30 39 43 47 48 50 50 54 55 56 57 57 58 58 58 59 60 60 60 61 63 63 65 65 66 67 68 68 69 69 69 70 71 72 73 73 73 74 74 75 75 75 75 74 74 74 74 74 74 72 72 72 72 73 73 73 73 72 72 72 73 71 71 71 71 66 67 67 69 70 68 67 65 65 66 68 71 70 69 68 69 69
21 20 23 25 31 35 37 37 40 33 32 38 35 40 38 31 31 45 48 50 50 50 50 53 53 55 56 58 57 57 59 60 60 61 61 62 64 65 65 66 67 69 69 69 68 69 70 71 72 72 73 74 74 74 75 74 74 74 75 75 74 74 75 73 72 72 71 71 72 72 73 73 73 72 71 70 70 68 72 71 71 70 71 70 69 68 67 66 64 65 67 68 67 68 68 68 68
21 22 24 21 28 27 26 31 30 32 28 31 33 39 40 39 37 44 45 47 48 50 49 49 51 53 56 56 57 58 58 59 60 62 62 62 63 64 65 66 68 69 69 69 69 68 70 72 72 72 73 74 74 74 74 74 75 75 74 74 75 75 75 74 73 72 71 71 71 72 72 72 72 70 70 69 69 70 71 72 71 71 70 70 69 69 68 68 67 66 67 66 66 66 66 66 66
20 21 28 26 24 22 23 27 32 30 30 30 30 40 34 40 42 44 42 42 44 47 50 50 51 54 56 57 58 57 58 59 60 61 62 63 64 64 66 67 68 68 69 69 69 70 71 71 72 72 73 74 74 75 74 75 75 75 75 75 75 75 75 74 73 72 71 71 71 71 71 70 70 69 69 69 68 69 71 71 71 71 71 70 70 70 69 68 68 67 67 66 65 66 66 66 66
21 20 20 24 26 21 23 26 23 23 24 34 35 34 36 31 33 41 41 43 45 45 46 50 53 52 55 54 56 56 57 59 61 62 61 62 64 65 66 67 68 68 68 69 70 71 72 72 72 73 73 74 74 74 74 74 74 75 75 75 75 75 74 73 72 71 71 70 70 70 71 70 69 69 69 69 70 71 71 71 71 70 70 70 70 70 69 69 69 68 68 67 66 66 66 66 65
20 21 20 25 22 28 19 28 22 25 26 29 38 34 38 33 46 44 45 40 42 40 44 47 50 51 53 53 54 55 56 57 60 61 62 63 65 66 66 66 67 68 69 68 70 71 71 72 73 73 73 74 74 74 74 74 75 75 75 75 75 75 74 73 72 71 71 70 70 70 70 70 70 70 70 70 70 70 71 71 71 70 70 69 70 70 69 68 69 68 68 68 67 67 67 67 66
20 20 19 18 25 18 34 33 29 28 26 25 40 36 35 38 36 36 39 42 42 45 43 43 47 49 54 53 54 54 55 57 59 60 61 64 64 66 66 67 66 67 68 69 71 72 71 72 72 73 74 74 74 74 74 74 75 75 75 75 75 74 73 72 71 70 69 69 70 70 69 69 70 70 69 69 69 70 71 70 70 69 70 69 70 70 69 69 69 68 67 68 67 66 67 67 65
18 17 19 26 27 28 30 19 35 25 19 29 32 28 29 31 25 48 41 39 37 41 45 41 48 52 52 52 55 56 56 57 60 62 64 64 64 65 65 66 66 66 67 69 72 72 72 72 72 73 73 74 74 74 74 74 74 75 75 75 74 74 72 71 71 70 69 69 69 69 69 69 68 68 68 68 69 69 70 70 69 69 69 69 68 68 69 69 69 68 68 67 67 67 67 67 67
16 17 23 16 24 23 44 33 24 23 23 23 31 32 29 32 29 32 31 37 38 44 47 45 47 48 50 51 54 57 57 57 59 60 62 63 64 65 66 65 65 67 69 70 71 71 72 72 72 72 73 73 73 73 74 74 74 74 74 74 74 73 72 71 70 70 70 68 67 68 67 68 68 69 69 69 69 68 69 69 69 68 69 69 69 68 69 69 69 68 68 67 67 68 67 67 67
17 21 19 20 23 31 30 26 36 26 21 24 23 29 25 36 33 32 30 38 47 42 44 45 43 47 50 52 52 56 57 58 58 59 61 62 63 63 64 65 65 67 69 69 69 69 69 70 72 72 72 73 74 74 74 74 74 74 74 74 74 73 72 71 70 70 69 68 68 67 67 67 68 68 68 69 69 68 68 67 67 66 66 67 68 68 68 68 69 68 67 65 65 68 67 67 65
14 15 18 20 22 23 25 28 25 22 26 25 22 24 30 36 39 35 39 42 45 45 46 50 49 46 48 51 53 56 58 58 59 60 60 62 62 62 64 65 66 67 68 67 67 68 68 69 70 71 72 72 73 73 73 74 74 74 74 73 73 72 71 70 69 69 69 69 68 68 67 67 69 68 68 68 69 69 68 68 67 67 66 67 68 67 68 68 68 68 68 67 66 68 67 66 67
12 12 17 17 20 23 20 22 23 26 22 29 24 21 32 32 37 43 41 41 41 46 47 48 47 47 50 51 53 57 58 60 60 59 59 60 63 63 64 66 67 67 66 66 67 68 68 69 69 69 69 70 70 72 73 74 74 74 74 73 72 71 70 69 69 69 68 68 68 68 68 69 67 68 68 67 68 68 68 68 67 68 68 68 68 68 67 67 67 67 67 67 66 67 67 66 67